Location: Harbor Island
(32.3990°N, 80.4435°W)
Time: 11:00:39
(UTC-04:00)

Daily predictions for brighter satellites

Satellite Brightness Start Highest point End
(mag) Time Altitude Azimuth Time Altitude Azimuth Time Altitude Azimuth
NOAA 12 4.2 20:09:20 10° SSE 20:14:35 90° WSW 20:19:50 10° NNW
Centaur AC-119 4.3 20:14:02 10° WSW 20:17:24 16° SW 20:19:21 10° S
Cosmos 1697 Rocket 4.3 20:19:10 10° ESE 20:21:33 13° E 20:23:56 10° ENE
NOSS 2-1 (D) 4.1 20:17:50 10° SW 20:21:35 56° WNW 20:25:39 10° NNE
Helios 1A 2.9 20:18:10 10° SSE 20:22:18 76° ENE 20:26:30 10° N
NOSS 2-1 (C) 4.1 20:18:50 10° SW 20:22:37 57° WNW 20:26:41 10° NNE
Okean 2 4.4 20:19:26 10° NNE 20:22:59 27° E 20:26:30 10° SE
Cosmos 2278 4.0 20:18:03 10° S 20:23:22 44° ESE 20:28:44 10° NE
Orbus 7S 4.5 20:14:45 10° WSW 20:23:32 49° S 20:26:46 10° ESE
Cosmos 968 Rocket 3.4 20:19:56 10° NNW 20:25:04 73° ENE 20:30:09 10° SSE
Meteor 2-4 Rocket 4.0 20:19:37 10° N 20:25:22 55° E 20:31:09 10° SSE
GOES 2 Rocket 3.9 20:24:01 10° W 20:27:51 35° SSW 20:31:52 10° SE
Cosmos 1315 Rocket 3.6 20:25:44 10° SSW 20:29:39 58° W 20:33:38 10° N
ALOS 2.8 20:26:26 10° SE 20:30:46 40° ENE 20:35:07 10° N
Cosmos 1892 Rocket 3.9 20:31:23 10° N 20:35:42 48° E 20:40:02 10° SSE
Cosmos 1455 Rocket 3.3 20:32:18 10° SSE 20:36:26 47° E 20:40:36 10° NNE
Cosmos 2369 3.8 20:31:11 10° S 20:36:38 52° ESE 20:42:07 10° NNE
Cosmos 1025 Rocket 3.0 20:32:39 10° N 20:37:02 86° E 20:41:20 10° S
Resurs 1-3 3.6 20:32:42 10° SSE 20:37:04 85° ENE 20:41:28 10° N
H-2A R/B 3.5 20:33:37 10° SE 20:37:05 33° ENE 20:40:37 10° N
METEOR-M 4.4 20:36:14 10° S 20:41:33 72° WSW 20:46:53 10° NNW
Cosmos 1980 Rocket 4.1 20:45:16 10° E 20:45:16 10° E 20:45:26 10° E
Meteor 1-23 Rocket 4.2 20:39:27 10° N 20:45:07 76° E 20:50:50 10° SSE
IUS-26 SRM-1 4.2 20:47:31 10° SSW 20:48:33 12° S 20:49:23 11° SSE
Centaur D-1A AC-32 3.0 20:47:52 10° WSW 20:52:17 33° S 20:54:06 19° SE
FengYun 1-2 T 4.4 20:47:36 10° S 20:53:15 79° WSW 20:58:53 10° NNW
CZ-2D R/B 3.2 20:50:01 10° SSE 20:53:48 64° ENE 20:57:39 10° N
Resurs 01 Rocket 2.9 20:49:58 10° S 20:54:09 43° W 20:58:22 10° NNW
Cosmos 1934 Rocket 4.0 20:48:04 10° S 20:54:09 89° ENE 21:00:22 10° N
ATLAS 3B CENTAUR R/B 1.2 20:53:54 10° WSW 20:55:28 21° S 20:55:33 21° S
Hubble Space Telescope 1.6 20:57:10 10° W 21:01:01 38° S 21:03:00 23° SE
OE (NEXTSAT) 4.4 21:00:29 10° NW 21:04:03 72° NE 21:05:32 32° ESE
Cosmos 1777 Rocket 4.1 21:00:23 10° NNW 21:05:39 81° WSW 21:10:55 10° SSE
Delta 2 Rocket 4.0 21:05:41 10° WNW 21:11:20 73° NNE 21:14:11 27° E
USA 186 1.6 21:09:57 23° S 21:11:48 87° WSW 21:14:50 10° NNW
FENGYUN 3A 3.8 21:06:51 10° S 21:12:12 77° WSW 21:17:33 10° NNW
Cosmos 1346 Rocket 2.7 21:08:56 10° N 21:12:54 90° ENE 21:15:55 17° S
Tiangong 1 3.9 21:12:51 10° NNW 21:14:16 12° N 21:15:41 10° NNE
Cosmos 2227 Rocket 2.3 21:09:54 10° N 21:15:28 56° ENE 21:18:21 28° SE
OTV 4 1.7 21:13:24 10° NW 21:16:07 32° N 21:16:45 29° NE
Cosmos 1656 3.6 21:12:22 10° S 21:17:56 66° ESE 21:23:29 10° NNE
Cosmos 1500 3.6 21:18:30 38° E 21:18:30 38° E 21:21:48 10° NNE
NOSS 3-4 (A) 3.8 21:16:10 10° NNW 21:23:20 80° ENE 21:28:01 25° SE
NOSS 3-4 (C) 3.8 21:16:17 10° NNW 21:23:27 79° ENE 21:28:06 26° SE
CZ-4 DEB 3.3 21:26:40 44° NE 21:26:40 44° NE 21:29:11 10° N
Cosmos 2082 3.6 21:23:18 10° NNW 21:28:54 69° ENE 21:31:16 35° SE
Cosmos 2297 Rocket 2.4 21:25:36 10° N 21:31:08 54° ENE 21:32:48 40° ESE
Envisat 3.3 21:34:14 43° ESE 21:35:03 47° ENE 21:39:54 10° N
Cosmos 2173 Rocket 4.2 21:32:57 31° SE 21:35:38 49° E 21:41:43 10° NNE
Milstar 3 Cent rocket 4.3 21:16:44 10° W 21:39:37 76° S 21:45:56 32° ESE
SJ-11-01 4.1 21:38:16 46° SSE 21:39:39 80° ENE 21:44:20 10° N
Cosmos 1515 3.9 21:41:43 10° N 21:44:57 59° NNE 21:44:57 59° NNE
Cosmos 2100 Rocket 3.9 21:42:26 27° SSE 21:45:58 68° E 21:52:10 10° NNE
Cosmos 2061 Rocket 4.0 21:44:13 36° SSE 21:46:47 62° E 21:52:58 10° NNE
OAO 2 Rocket 3.5 21:42:07 10° W 21:47:09 70° N 21:48:32 47° ENE
YAOGAN 11 4.3 21:50:15 50° SSW 21:51:19 71° WSW 21:55:48 10° NNW
Cosmos 2150 Rocket 4.2 21:49:38 10° N 21:54:22 51° ENE 21:54:22 51° ENE
Iridium 4 Rocket 3.7 21:50:04 10° N 21:55:01 62° W 21:56:49 35° SSW
Cosmos 1975 4.4 21:51:44 10° SSW 21:55:30 35° W 21:59:17 10° NNW
DELTA 2 R/B (1) 4.1 21:53:58 10° WNW 21:59:22 50° NNE 22:00:24 44° NE
Cosmos 1066 Rocket 4.1 21:56:57 10° N 22:02:39 83° E 22:03:26 68° SSE
Cosmos 1697 Rocket 3.0 21:59:15 10° SSW 22:04:51 65° WNW 22:10:28 10° NNE
H-2A R/B 3.0 22:06:31 38° N 22:06:31 38° N 22:09:08 10° N
ERS-1 Rocket 3.5 22:07:44 45° SW 22:08:50 55° W 22:13:46 10° NNW
Lacrosse 5 rocket 2.9 22:07:31 10° NW 22:09:24 28° NNW 22:09:24 28° NNW
deb Chang Zheng 4 4.3 22:14:06 10° N 22:18:17 52° WNW 22:18:17 52° WNW
Cosmos 1898 Rocket 3.6 22:14:22 10° NNW 22:19:08 72° NW 22:19:08 72° NW
Cosmos 1459 Rocket 4.3 22:21:24 36° SSW 22:23:50 61° W 22:29:51 10° N
Cosmos 1980 Rocket 2.3 22:26:51 71° WNW 22:26:56 71° WNW 22:32:37 10° NNE
ARGOS 4.2 22:30:52 35° NNE 22:30:52 35° NNE 22:34:09 10° N
SPOT 5 3.9 22:41:21 45° NW 22:41:21 45° NW 22:45:00 10° NNW
Lacrosse 5 3.3 22:36:30 10° NNW 22:39:26 31° N 22:39:26 31° N
USA 215 4.3 22:44:53 32° NE 22:44:59 32° NE 22:50:38 10° NNW
Cosmos 2227 Rocket 4.5 22:55:50 10° WNW 22:58:55 15° W 23:00:12 14° WSW
CZ-3C R/B 4.1 22:57:55 10° W 23:09:52 23° SW 23:09:52 23° SW
Cosmos 2297 Rocket 4.5 23:11:20 10° WNW 23:14:37 16° W 23:14:38 16° W
H-2A R/B 4.3 23:19:51 18° N 23:19:51 18° N 23:21:07 10° N
